Regional Weather Roundup
Issued by NWS Boston, MA

Current Version | Previous Version | Text Only | Print | Product List | Glossary Off
Versions: 1 2 3 4 5 6 7 8 9 10 11 12 13 14 15 16 17 18 19 20 21 22 23 24 25 26 27

000
ASUS41 KBOX 240810
RWRBOX

REGIONAL WEATHER ROUNDUP
NATIONAL WEATHER SERVICE TAUNTON MA
400 AM EDT SUN SEP 24 2017

NOTE:  "FAIR" INDICATES FEW OR NO CLOUDS BELOW 12,000 FEET WITH NO
SIGNIFICANT WEATHER AND/OR OBSTRUCTIONS TO VISIBILITY.

MAZALL-240900-
EASTERN MASSACHUSETTS

CITY           SKY/WX    TMP DP  RH WIND       PRES   REMARKS
BOSTON         CLEAR     62  61  96 CALM      30.03S
BEVERLY        CLEAR     60  59  96 CALM      30.02R
LAWRENCE       CLEAR     64  61  90 CALM      30.05R
BEDFORD        CLEAR     59  56  89 CALM      30.02S
BLUE HILL        N/A     66  60  81 NW9       30.04R
NORWOOD        MOCLDY    57  55  93 CALM      30.03R FOG
MARSHFIELD     FOG       57  57 100 CALM      30.02S VSB 1/2
PLYMOUTH       CLOUDY    57  55  93 CALM      30.03R FOG
TAUNTON        CLOUDY    57  56  96 CALM      30.03R FOG
NEW BEDFORD    CLEAR     59  58  96 CALM      30.01S
$$

MAZALL-240900-
CAPE COD AND THE ISLANDS

CITY           SKY/WX    TMP DP  RH WIND       PRES   REMARKS
FALMOUTH       FOG       59  59 100 N5        30.03S VSB 1/2
HYANNIS        FOG       60  60 100 N6        30.00S VSB 1/4
CHATHAM        FOG       62  62 100 CALM      30.02R VSB 3/4
PROVINCETOWN   FOG       59  59 100 N5        30.03R VSB 1/2
NANTUCKET      FOG       61  61 100 N12       30.00S VSB 1/2
MARTHAS VNYRD  FOG       63  61  93 N5        30.01S VSB 1/4
$$

MAZALL-240900-
CENTRAL AND WESTERN MASSACHUSETTS

CITY           SKY/WX    TMP DP  RH WIND       PRES   REMARKS
WORCESTER      CLEAR     73  57  57 N7        30.07R
FITCHBURG      CLEAR     62  59  90 CALM      30.05S
ORANGE         CLEAR     57  57 100 CALM      30.07S
SPRINGFIELD    CLEAR     57  55  94 CALM      30.04S
WESTFIELD      CLEAR     61  60  97 CALM      30.05S
NORTH ADAMS    CLEAR     55  53  93 CALM      30.11R
PITTSFIELD     CLEAR     57  55  93 CALM      30.10R
$$

RIZALL-240900-
RHODE ISLAND

CITY           SKY/WX    TMP DP  RH WIND       PRES   REMARKS
PROVIDENCE     CLEAR     61  61 100 CALM      30.04R
NEWPORT        FOG       60  60 100 NW3       30.02R VSB 1/2
BLOCK ISLAND   CLEAR     63  62  97 NW5       30.03S
SMITHFIELD     CLEAR     60  60 100 CALM      30.04S
WESTERLY       CLEAR     60  58  92 CALM      30.03S
$$

CTZALL-240900-
CONNECTICUT

CITY           SKY/WX    TMP DP  RH WIND       PRES   REMARKS
BRADLEY INTL   CLEAR     62  59  90 CALM      30.05R
HARTFORD       CLEAR     61  60  97 CALM      30.05R
BRIDGEPORT     CLEAR     66  60  81 CALM      30.04R
DANBURY        CLEAR     59  57  93 CALM      30.08R
GROTON         CLEAR     60  59  96 CALM      30.03R
NEW HAVEN      CLEAR     64  59  83 CALM      30.03S
CHESTER        FAIR      66  59  77 NW7       30.04S
MERIDEN        CLEAR     59  57  93 CALM      30.04S
WILLIMANTIC    CLEAR     60  59  96 CALM      30.05R
OXFORD         CLEAR     66  58  75 N7        30.07R
$$

MEZ002-015-021-024-NHZ003-005-008-011-012-014-VTZ005-008-240900-
NORTHERN NEW ENGLAND

CITY           SKY/WX    TMP DP  RH WIND       PRES   REMARKS
PORTLAND ME    CLEAR     64  61  90 W3        30.03S
BANGOR ME      CLEAR     59  56  89 CALM      30.02R
CONCORD NH     CLEAR     60  58  92 CALM      30.05R
MANCHESTER NH  CLEAR     66  61  84 NE3       30.03R
NASHUA NH      CLEAR     61  60  97 NW3       30.05R
PORTSMOUTH NH  CLEAR     61  59  96 NW3       30.02R
JAFFREY NH     CLEAR     58  58 100 CALM      30.09R
KEENE NH       CLEAR     57  56  96 CALM      30.08S
BURLINGTON VT  CLEAR     63  61  93 E3        30.07S
MT. WASHINGTON PTCLDY    55  50  82 W15         N/A
$$

NYZ052-076-240900-
EASTERN NEW YORK

CITY           SKY/WX    TMP DP  RH WIND       PRES   REMARKS
ALBANY         CLEAR     62  59  90 CALM      30.09R
NEW YORK CITY  CLEAR     72  60  66 CALM      30.03S
$$

ANZALL-240900-
MARINE OBSERVATIONS

STATION/POSITION TIME  TEMP    WIND        PRES    VSBY  WAVE
                       AIR SEA DIR/SP/G                  HT/PER
                 (UTC) (F)     (DEG/KT/KT) (MB)    (MI)  (FT/S)
BOSTON BUOY      0750   60 61   CALM  /  2 1016.5R         3/11
BUZZARDS BAY     0700   62      10/  5/  5 1016.6S
NANTUCKET SOUND  0750   61 62   10/  8/  8 1016.0R         2/ 4
MASS BAY-STELLWA 0704   60 61  220/  2/  2 1015.7R         3/ 8
ISLE OF SHOALS   0700   62     250/  5/  5 1016.1F
S OF BLOCK IS    NOT AVBL
$$

......................KEY.........................
  SKY/WX - SKY CONDITION/PRESENT WEATHER
  TMP    - TEMPERATURE IN FAHRENHEIT
  DWPT   - DEWPOINT IN FAHRENHEIT
  RH     - RELATIVE HUMIDITY IN PERCENT
  WIND   - DIRECTION AND SPEED IN MPH
  PRES   - MEAN SEA LEVEL PRESSURE IN INCHES OF HG
  WCI    - WIND CHILL INDEX
  VSB    - VISIBILITY IN MILES
  HX     - HEAT INDEX
  TC     - TEMPERATURE IN CELSIUS
  VRB    - VARIABLE WIND DIRECTION
  N/A    - NOT AVAILABLE




USA.gov is the U.S. government's official web portal to all federal, state and local government web resources and services.